QPF
0.00 0.00 0.00 0.00 0.00 0.00 0.00 0.00 0.00 0.00 0.00 0.00 0.00 0.00 0.00 0.00 0.00 0.01 0.01 0.01 0.02 0.03 0.02 0.02 0.02 0.03 0.04 0.06 0.06 0.06 0.10 0.11 0.17 0.06 0.00 0.00 0.00 0.00 0.00 0.00 0.00 0.00 0.00
0.00 0.00 0.00 0.00 0.00 0.00 0.00 0.00 0.00 0.00 0.00 0.00 0.00 0.00 0.00 0.00 0.00 0.00 0.00 0.01 0.02 0.02 0.02 0.03 0.02 0.05 0.04 0.05 0.05 0.03 0.07 0.09 0.14 0.06 0.00 0.00 0.00 0.00 0.00 0.00 0.00 0.00 0.00
0.00 0.00 0.00 0.00 0.00 0.00 0.00 0.00 0.00 0.00 0.00 0.00 0.00 0.00 0.00 0.00 0.00 0.00 0.00 0.00 0.01 0.01 0.01 0.03 0.02 0.06 0.04 0.06 0.06 0.03 0.05 0.10 0.11 0.03 0.01 0.00 0.00 0.00 0.00 0.00 0.00 0.00 0.00
0.00 0.00 0.00 0.00 0.00 0.00 0.00 0.00 0.00 0.00 0.00 0.00 0.00 0.00 0.00 0.00 0.00 0.00 0.00 0.00 0.00 0.01 0.01 0.01 0.01 0.06 0.05 0.06 0.05 0.03 0.05 0.08 0.06 0.03 0.01 0.00 0.00 0.00 0.00 0.00 0.00 0.00 0.00
0.00 0.00 0.00 0.00 0.00 0.00 0.00 0.00 0.00 0.00 0.00 0.00 0.00 0.00 0.00 0.00 0.00 0.00 0.00 0.00 0.00 0.00 0.00 0.00 0.00 0.02 0.03 0.06 0.06 0.03 0.02 0.05 0.03 0.01 0.00 0.00 0.00 0.00 0.00 0.00 0.00 0.00 0.00
0.00 0.00 0.00 0.00 0.00 0.00 0.00 0.00 0.00 0.00 0.00 0.00 0.00 0.00 0.00 0.00 0.00 0.00 0.00 0.00 0.00 0.00 0.01 0.01 0.01 0.01 0.02 0.07 0.07 0.08 0.04 0.03 0.01 0.00 0.00 0.00 0.00 0.00 0.00 0.00 0.00 0.00 0.00
0.00 0.00 0.00 0.00 0.00 0.00 0.00 0.00 0.00 0.00 0.00 0.00 0.00 0.00 0.00 0.00 0.00 0.00 0.00 0.00 0.00 0.00 0.01 0.02 0.01 0.00 0.01 0.04 0.06 0.09 0.06 0.04 0.03 0.02 0.01 0.00 0.00 0.00 0.00 0.00 0.00 0.00 0.00
0.00 0.00 0.00 0.00 0.00 0.00 0.00 0.00 0.00 0.00 0.00 0.00 0.00 0.00 0.00 0.00 0.00 0.00 0.00 0.00 0.00 0.00 0.00 0.01 0.02 0.02 0.01 0.02 0.06 0.06 0.03 0.03 0.02 0.01 0.01 0.00 0.00 0.00 0.00 0.00 0.00 0.00 0.00
0.00 0.00 0.00 0.00 0.00 0.00 0.00 0.00 0.00 0.00 0.00 0.00 0.00 0.00 0.00 0.00 0.00 0.00 0.00 0.00 0.00 0.00 0.00 0.00 0.02 0.02 0.01 0.01 0.02 0.02 0.02 0.02 0.02 0.01 0.00 0.00 0.00 0.00 0.00 0.00 0.00 0.00 0.00
0.00 0.00 0.00 0.00 0.00 0.00 0.00 0.00 0.00 0.00 0.00 0.00 0.00 0.00 0.00 0.00 0.00 0.00 0.00 0.00 0.00 0.00 0.01 0.01 0.01 0.03 0.02 0.02 0.02 0.02 0.01 0.01 0.01 0.00 0.00 0.00 0.00 0.00 0.00 0.00 0.00 0.00 0.00
0.00 0.00 0.00 0.00 0.00 0.00 0.00 0.00 0.00 0.00 0.00 0.00 0.00 0.00 0.00 0.00 0.00 0.00 0.00 0.00 0.00 0.01 0.02 0.01 0.01 0.02 0.02 0.02 0.03 0.02 0.03 0.03 0.01 0.00 0.00 0.00 0.00 0.00 0.00 0.00 0.00 0.00 0.00
0.00 0.00 0.00 0.00 0.00 0.00 0.00 0.00 0.00 0.00 0.00 0.00 0.00 0.00 0.00 0.00 0.00 0.00 0.00 0.00 0.00 0.01 0.00 0.00 0.00 0.01 0.02 0.02 0.04 0.03 0.03 0.03 0.01 0.00 0.00 0.00 0.00 0.00 0.00 0.00 0.00 0.00 0.00
0.00 0.00 0.00 0.00 0.00 0.00 0.00 0.00 0.00 0.01 0.00 0.00 0.00 0.00 0.00 0.00 0.00 0.00 0.00 0.00 0.00 0.00 0.01 0.00 0.00 0.02 0.03 0.03 0.04 0.02 0.01 0.02 0.01 0.00 0.00 0.00 0.00 0.00 0.00 0.00 0.00 0.00 0.00
0.00 0.00 0.00 0.00 0.00 0.00 0.00 0.00 0.00 0.00 0.01 0.00 0.00 0.00 0.00 0.00 0.00 0.00 0.00 0.00 0.00 0.00 0.00 0.00 0.00 0.02 0.04 0.04 0.03 0.01 0.01 0.00 0.00 0.00 0.00 0.00 0.00 0.00 0.00 0.00 0.00 0.00 0.00
0.00 0.00 0.00 0.00 0.00 0.00 0.00 0.00 0.01 0.01 0.01 0.01 0.01 0.00 0.00 0.00 0.00 0.00 0.00 0.03 0.03 0.00 0.00 0.00 0.00 0.02 0.02 0.03 0.02 0.01 0.00 0.00 0.00 0.00 0.00 0.00 0.00 0.00 0.00 0.00 0.00 0.00 0.00
0.00 0.00 0.00 0.00 0.00 0.00 0.00 0.00 0.00 0.00 0.00 0.00 0.00 0.00 0.00 0.00 0.00 0.00 0.00 0.01 0.02 0.00 0.00 0.00 0.00 0.01 0.01 0.02 0.01 0.00 0.00 0.00 0.00 0.00 0.00 0.00 0.00 0.00 0.00 0.00 0.00 0.00 0.00
0.00 0.00 0.00 0.00 0.00 0.00 0.00 0.00 0.00 0.00 0.00 0.00 0.00 0.00 0.00 0.00 0.00 0.00 0.01 0.02 0.02 0.00 0.00 0.00 0.00 0.00 0.00 0.01 0.01 0.00 0.00 0.00 0.00 0.00 0.00 0.00 0.00 0.00 0.00 0.00 0.00 0.00 0.00
0.00 0.00 0.00 0.00 0.00 0.00 0.00 0.00 0.00 0.00 0.00 0.00 0.00 0.00 0.00 0.00 0.00 0.00 0.01 0.03 0.02 0.01 0.00 0.00 0.00 0.00 0.00 0.00 0.00 0.00 0.00 0.00 0.00 0.00 0.00 0.00 0.00 0.00 0.00 0.00 0.00 0.00 0.00
0.00 0.00 0.00 0.00 0.00 0.00 0.00 0.00 0.00 0.00 0.00 0.00 0.00 0.00 0.00 0.00 0.00 0.00 0.01 0.01 0.00 0.01 0.00 0.00 0.00 0.00 0.00 0.00 0.00 0.00 0.00 0.00 0.00 0.00 0.00 0.00 0.00 0.00 0.00 0.00 0.00 0.00 0.00
0.00 0.00 0.00 0.00 0.00 0.00 0.00 0.00 0.00 0.00 0.00 0.00 0.00 0.00 0.00 0.00 0.01 0.01 0.01 0.00 0.00 0.00 0.00 0.00 0.00 0.00 0.00 0.00 0.00 0.00 0.00 0.00 0.00 0.00 0.00 0.00 0.00 0.00 0.00 0.00 0.00 0.00 0.00
0.00 0.00 0.00 0.00 0.00 0.00 0.00 0.00 0.00 0.00 0.00 0.01 0.01 0.01 0.02 0.03 0.03 0.02 0.01 0.01 0.00 0.00 0.00 0.00 0.00 0.00 0.00 0.00 0.00 0.00 0.00 0.00 0.00 0.00 0.00 0.00 0.00 0.00 0.00 0.00 0.00 0.00 0.00
0.00 0.00 0.00 0.00 0.00 0.00 0.00 0.00 0.01 0.01 0.00 0.00 0.03 0.04 0.03 0.03 0.01 0.02 0.02 0.01 0.00 0.00 0.00 0.00 0.00 0.00 0.00 0.00 0.00 0.00 0.00 0.00 0.00 0.00 0.00 0.00 0.00 0.00 0.00 0.00 0.00 0.00 0.00
0.00 0.00 0.00 0.00 0.00 0.00 0.00 0.01 0.03 0.02 0.00 0.01 0.04 0.05 0.03 0.01 0.00 0.00 0.00 0.00 0.00 0.00 0.00 0.00 0.00 0.00 0.00 0.00 0.00 0.00 0.00 0.00 0.00 0.00 0.00 0.00 0.00 0.00 0.00 0.00 0.00 0.00 0.00
0.00 0.01 0.01 0.00 0.00 0.00 0.02 0.04 0.02 0.00 0.01 0.02 0.01 0.01 0.01 0.00 0.00 0.00 0.00 0.00 0.00 0.00 0.00 0.00 0.00 0.00 0.00 0.00 0.00 0.00 0.00 0.00 0.00 0.00 0.00 0.00 0.00 0.00 0.00 0.00 0.00 0.00 0.00
0.01 0.03 0.02 0.01 0.00 0.00 0.01 0.00 0.00 0.00 0.00 0.00 0.00 0.01 0.00 0.00 0.00 0.00 0.00 0.00 0.00 0.00 0.00 0.00 0.00 0.00 0.00 0.00 0.00 0.00 0.00 0.00 0.00 0.00 0.00 0.00 0.00 0.00 0.00 0.00 0.00 0.00 0.00
0.01 0.03 0.02 0.01 0.01 0.01 0.01 0.01 0.01 0.00 0.01 0.01 0.02 0.01 0.00 0.00 0.00 0.00 0.00 0.00 0.00 0.00 0.00 0.00 0.00 0.00 0.00 0.00 0.00 0.00 0.00 0.00 0.00 0.00 0.00 0.00 0.00 0.00 0.00 0.00 0.00 0.00 0.00
MSLP
1005.41 1005.81 1006.20 1006.61 1007.20 1007.57 1007.89 1008.22 1008.53 1008.84 1009.10 1009.26 1009.34 1009.49 1009.48 1009.47 1009.43 1009.32 1009.11 1009.19 1009.22 1009.28 1009.41 1009.30 1009.18 1009.36 1009.49 1009.95 1010.25 1010.16 1010.42 1010.75 1011.43 1012.53 1013.03 1013.41 1014.31 1015.33 1016.68 1017.70 1018.75 1019.13 1020.50
1004.79 1005.20 1005.63 1006.11 1006.53 1007.14 1007.59 1007.87 1008.02 1008.43 1008.75 1008.84 1008.93 1008.99 1009.04 1009.03 1009.02 1008.94 1008.70 1008.21 1008.01 1008.24 1008.69 1008.76 1008.61 1008.74 1008.98 1009.29 1009.61 1009.72 1009.91 1010.33 1010.85 1012.28 1012.67 1013.40 1014.10 1014.98 1016.00 1017.41 1017.68 1017.97 1019.26
1004.20 1004.41 1004.98 1005.60 1006.06 1006.50 1007.14 1007.50 1007.68 1007.93 1008.21 1008.38 1008.43 1008.48 1008.45 1008.44 1008.52 1008.55 1008.37 1008.02 1007.59 1007.37 1007.74 1008.10 1007.98 1008.19 1008.37 1008.85 1009.10 1009.39 1009.52 1010.00 1010.48 1011.28 1012.32 1013.11 1014.13 1015.29 1015.72 1016.78 1017.22 1017.03 1018.31
1003.82 1004.07 1004.16 1004.86 1005.66 1006.13 1006.57 1006.93 1007.17 1007.40 1007.59 1007.71 1007.82 1007.86 1007.89 1007.85 1007.95 1008.03 1007.90 1007.69 1007.39 1006.95 1006.64 1007.05 1007.33 1007.51 1007.71 1008.17 1008.55 1008.74 1009.14 1009.61 1010.09 1011.07 1011.84 1012.85 1013.69 1014.93 1015.31 1016.09 1016.73 1016.85 1018.16
1003.97 1004.17 1004.31 1004.83 1005.24 1005.75 1006.05 1006.24 1006.46 1006.70 1006.89 1007.03 1007.03 1007.07 1007.17 1007.30 1007.22 1007.23 1007.33 1007.22 1007.04 1006.70 1006.41 1006.27 1006.27 1006.62 1006.69 1007.31 1007.87 1008.17 1008.56 1009.13 1009.89 1010.70 1011.53 1012.42 1013.07 1014.02 1014.22 1015.31 1015.95 1016.18 1016.79
1004.67 1004.54 1004.54 1004.68 1004.91 1005.16 1005.39 1005.61 1005.83 1006.05 1006.24 1006.37 1006.32 1006.27 1006.24 1006.34 1006.40 1006.84 1007.21 1007.19 1007.05 1006.57 1006.08 1005.85 1005.57 1005.69 1006.05 1006.36 1007.02 1007.37 1007.91 1008.31 1009.30 1009.81 1010.58 1011.43 1012.02 1012.81 1013.39 1014.13 1014.75 1015.20 1015.69
1005.02 1004.95 1004.83 1004.73 1004.64 1004.69 1004.82 1004.92 1005.02 1005.17 1005.33 1005.34 1005.37 1005.35 1005.31 1005.47 1005.94 1006.33 1006.58 1006.71 1006.53 1006.19 1005.92 1005.55 1005.32 1005.00 1005.30 1005.46 1006.37 1006.88 1007.39 1008.21 1008.51 1008.99 1009.61 1010.33 1011.25 1011.67 1012.43 1013.14 1013.80 1014.41 1014.65
1004.70 1004.60 1004.44 1004.22 1003.99 1003.97 1004.02 1003.99 1004.09 1004.20 1004.26 1004.30 1004.31 1004.33 1004.39 1004.51 1005.06 1005.47 1005.81 1006.00 1005.71 1005.43 1005.26 1005.06 1004.89 1004.87 1004.73 1004.89 1005.23 1006.59 1006.87 1007.89 1008.56 1008.81 1009.38 1009.87 1010.24 1011.02 1011.85 1012.46 1013.12 1014.10 1014.60
1004.09 1003.99 1003.81 1003.50 1003.21 1003.07 1002.95 1003.02 1003.10 1003.21 1003.22 1003.23 1003.27 1003.31 1003.44 1003.67 1004.25 1004.71 1005.20 1004.99 1004.60 1004.27 1004.12 1004.03 1003.99 1003.88 1004.09 1004.55 1005.19 1006.02 1006.90 1007.65 1008.21 1008.85 1008.91 1009.62 1010.08 1010.80 1011.14 1012.20 1012.90 1013.44 1014.25
1003.58 1003.23 1003.03 1002.87 1002.63 1002.37 1002.28 1002.25 1002.22 1002.25 1002.27 1002.40 1002.24 1002.23 1002.44 1002.72 1003.19 1003.84 1004.45 1004.15 1003.66 1003.32 1002.92 1002.71 1002.89 1003.03 1003.32 1004.10 1004.81 1005.76 1006.75 1007.39 1008.07 1009.17 1009.57 1009.97 1010.03 1010.62 1011.31 1011.76 1012.48 1012.74 1013.43
1003.31 1003.00 1002.65 1002.39 1002.25 1001.99 1001.99 1001.91 1001.51 1001.50 1001.68 1001.83 1001.75 1001.61 1001.64 1001.74 1002.03 1002.62 1003.14 1003.27 1002.97 1002.51 1001.84 1001.44 1001.62 1002.49 1003.28 1003.73 1004.32 1005.15 1005.72 1006.95 1007.78 1008.37 1008.97 1009.49 1010.11 1010.70 1011.45 1011.63 1012.12 1012.13 1012.62
1003.51 1003.31 1003.08 1002.68 1002.36 1002.06 1001.58 1001.31 1001.36 1001.11 1000.94 1001.06 1001.41 1001.16 1000.84 1000.99 1001.23 1001.56 1001.99 1002.30 1002.07 1002.05 1001.45 1000.79 1001.08 1002.16 1002.98 1003.57 1004.17 1004.80 1005.98 1006.72 1007.63 1008.61 1008.90 1009.41 1009.69 1010.64 1011.39 1011.68 1012.13 1011.95 1012.15
1003.38 1003.13 1002.92 1002.73 1002.42 1002.04 1001.42 1001.11 1000.92 1000.54 1000.21 999.89 999.72 999.25 999.18 999.47 999.40 999.84 1000.15 1000.57 1001.03 1001.41 1000.99 1000.54 1001.05 1002.12 1002.83 1003.64 1004.13 1004.78 1005.97 1006.70 1007.22 1008.09 1009.22 1008.87 1009.22 1010.29 1011.27 1012.07 1013.00 1013.10 1013.55
1003.14 1002.83 1002.51 1002.10 1001.81 1001.45 1001.15 1000.75 1000.31 1000.20 999.83 999.43 999.05 998.77 998.60 998.43 998.23 997.77 998.28 998.69 1000.03 1000.32 1000.45 1000.76 1001.18 1001.74 1002.43 1003.04 1004.35 1004.93 1005.69 1006.21 1006.78 1008.20 1009.35 1008.61 1008.80 1010.23 1011.35 1012.25 1013.02 1013.40 1013.89
1002.34 1001.95 1001.70 1001.45 1001.05 1000.56 1000.17 999.89 999.82 999.53 999.36 998.84 998.41 998.27 998.19 997.75 997.89 998.66 998.19 997.79 998.26 999.26 999.87 1000.43 1001.22 1001.87 1002.64 1003.26 1003.94 1004.66 1005.42 1006.34 1006.77 1007.63 1009.21 1008.67 1008.48 1010.07 1011.24 1012.22 1012.69 1013.11 1013.72
1001.35 1001.03 1000.63 1000.28 1000.08 999.70 999.32 998.98 998.97 998.99 998.85 998.67 998.56 998.45 997.96 997.79 998.12 998.38 998.15 998.66 998.33 999.25 999.72 999.90 1000.55 1001.19 1001.91 1002.62 1003.29 1003.92 1004.88 1005.61 1006.20 1007.20 1008.78 1008.55 1008.17 1009.76 1010.62 1011.65 1012.15 1012.65 1013.36
999.98 999.65 999.45 999.26 998.95 998.64 998.36 998.14 997.74 997.41 997.33 997.24 997.35 997.53 997.67 997.73 997.76 998.08 998.51 998.97 999.05 999.04 998.89 999.41 999.85 1000.46 1001.29 1002.03 1002.63 1003.09 1003.85 1004.61 1005.79 1005.89 1007.74 1007.74 1008.28 1009.16 1010.01 1010.84 1011.47 1012.25 1013.10
998.42 998.08 997.95 997.65 997.47 997.29 997.06 996.81 996.63 996.36 996.07 995.85 995.99 996.26 996.43 996.70 997.13 997.38 998.15 998.97 999.70 998.83 997.91 998.63 999.25 999.93 1000.59 1001.58 1002.10 1002.62 1003.51 1004.24 1005.27 1005.47 1006.75 1007.36 1007.97 1008.63 1009.44 1010.08 1010.89 1011.63 1012.45
997.19 996.57 996.19 995.93 995.84 995.75 995.64 995.50 995.37 995.22 994.97 994.78 994.78 994.79 994.80 995.17 995.55 996.21 997.36 997.90 997.98 997.85 997.01 997.66 998.40 999.25 1000.05 1000.85 1001.55 1002.14 1002.92 1004.22 1004.61 1005.36 1006.44 1006.64 1007.37 1008.17 1008.96 1009.55 1010.31 1011.21 1012.05
995.87 995.37 995.21 994.79 994.29 993.99 994.03 994.05 993.95 993.84 993.66 993.48 993.32 993.22 993.21 994.08 994.55 994.85 995.75 996.12 996.21 996.52 996.42 996.73 997.67 998.59 999.31 1000.07 1001.11 1001.80 1002.33 1003.95 1004.59 1005.73 1005.82 1006.18 1007.02 1007.75 1008.27 1009.00 1009.98 1010.83 1011.63
994.32 993.68 993.51 993.40 993.01 992.76 992.66 992.47 992.40 992.41 992.32 992.21 991.84 991.59 991.99 992.51 992.68 993.02 993.51 994.15 994.52 995.11 995.55 995.98 996.87 997.85 998.66 999.27 1000.26 1001.51 1002.03 1003.21 1003.97 1005.29 1005.24 1005.78 1006.65 1007.11 1007.93 1008.77 1009.75 1010.64 1011.08
992.77 992.09 991.66 991.58 991.41 991.34 991.29 991.28 991.14 991.05 991.06 990.91 990.79 991.03 991.44 991.77 991.68 992.10 992.51 992.65 992.77 993.70 994.41 995.01 996.05 996.99 997.79 998.52 999.61 1000.66 1001.49 1002.42 1003.19 1004.07 1004.61 1005.42 1005.94 1006.71 1007.59 1008.53 1009.47 1010.16 1010.81
991.47 990.73 990.25 989.99 990.02 989.98 990.16 990.06 989.75 989.71 989.75 989.85 990.05 990.55 990.95 990.80 991.22 991.51 991.84 992.05 992.47 993.04 993.65 994.56 995.59 996.67 997.55 998.31 999.15 999.74 1000.57 1001.48 1002.06 1003.01 1004.00 1004.84 1005.55 1006.44 1007.29 1008.29 1009.10 1009.69 1010.56
989.89 989.15 988.70 988.74 988.73 988.86 989.00 988.75 988.58 988.68 989.09 989.33 989.76 990.08 990.21 990.48 990.66 990.80 991.05 991.55 992.08 992.72 993.53 994.34 995.28 996.25 997.38 998.36 999.09 999.97 1000.83 1000.94 1001.40 1002.66 1003.59 1004.39 1005.16 1006.42 1007.00 1007.95 1008.79 1009.52 1010.41
988.55 987.83 987.59 987.74 987.74 988.12 988.21 988.22 988.43 988.75 988.97 989.15 989.41 989.71 990.11 990.33 990.23 990.70 991.27 991.77 992.31 993.04 993.83 994.60 995.43 996.47 997.30 998.11 998.88 999.55 1000.37 1000.71 1001.50 1002.48 1003.48 1004.43 1005.16 1006.15 1006.90 1007.70 1008.56 1009.43 1010.39
989.12 988.51 988.32 988.11 988.21 988.33 988.44 988.46 988.81 988.99 989.16 989.35 989.44 989.86 990.14 990.66 990.70 991.08 991.45 991.99 992.66 993.26 993.95 994.77 995.73 996.65 997.20 998.21 999.04 999.36 1000.28 1001.06 1001.99 1002.79 1003.58 1004.39 1005.37 1006.07 1006.88 1007.57 1008.43 1009.43 1010.45
Thickness
5685 5682 5679 5678 5674 5672 5670 5669 5667 5666 5665 5664 5665 5663 5664 5665 5668 5671 5674 5675 5675 5676 5679 5683 5687 5690 5691 5691 5693 5697 5697 5699 5692 5680 5681 5680 5673 5668 5654 5650 5642 5637 5626
5679 5676 5672 5670 5668 5664 5661 5660 5660 5657 5656 5657 5657 5657 5658 5659 5661 5662 5665 5671 5673 5673 5673 5676 5680 5683 5684 5686 5686 5691 5694 5693 5692 5673 5677 5672 5670 5667 5656 5645 5644 5642 5630
5672 5669 5665 5661 5658 5655 5652 5650 5649 5648 5647 5648 5649 5649 5651 5653 5654 5655 5658 5663 5667 5671 5670 5669 5676 5676 5677 5678 5679 5681 5688 5686 5687 5680 5672 5669 5664 5655 5652 5645 5642 5645 5633
5661 5659 5658 5654 5649 5646 5643 5642 5641 5640 5638 5639 5640 5643 5644 5646 5648 5649 5652 5655 5659 5665 5671 5670 5672 5672 5674 5674 5675 5677 5678 5680 5679 5675 5671 5664 5661 5652 5651 5644 5641 5643 5631
5645 5644 5643 5641 5639 5636 5633 5633 5633 5632 5632 5632 5634 5636 5637 5638 5642 5644 5645 5648 5652 5657 5663 5667 5672 5672 5675 5673 5673 5674 5673 5672 5670 5669 5667 5662 5659 5653 5653 5647 5642 5643 5639
5624 5626 5629 5628 5627 5625 5624 5623 5622 5622 5623 5624 5626 5629 5631 5634 5636 5633 5633 5636 5641 5648 5655 5661 5668 5669 5669 5670 5669 5672 5672 5670 5665 5667 5666 5664 5663 5658 5656 5651 5648 5644 5639
5606 5609 5611 5612 5614 5614 5614 5614 5614 5615 5617 5620 5621 5624 5626 5628 5626 5626 5625 5630 5634 5640 5646 5653 5658 5666 5666 5669 5664 5665 5664 5661 5666 5667 5667 5667 5662 5662 5658 5652 5651 5645 5645
5594 5596 5599 5602 5604 5605 5605 5606 5608 5610 5612 5614 5616 5618 5620 5624 5620 5619 5619 5622 5629 5636 5641 5646 5650 5654 5660 5662 5664 5656 5660 5656 5658 5663 5664 5666 5666 5662 5656 5654 5651 5645 5643
5583 5585 5589 5592 5594 5596 5598 5600 5602 5603 5606 5608 5610 5611 5611 5614 5612 5611 5611 5617 5624 5632 5639 5644 5647 5651 5654 5650 5652 5652 5650 5650 5652 5656 5660 5661 5660 5657 5655 5650 5646 5643 5638
5573 5578 5581 5581 5583 5587 5589 5591 5593 5594 5596 5598 5600 5602 5602 5603 5602 5600 5601 5609 5617 5626 5636 5643 5644 5646 5646 5643 5645 5644 5641 5644 5645 5642 5647 5651 5654 5653 5650 5648 5645 5643 5641
5563 5566 5569 5571 5572 5575 5574 5576 5581 5581 5581 5581 5583 5587 5589 5592 5594 5591 5591 5598 5607 5617 5630 5640 5645 5638 5633 5636 5638 5640 5642 5637 5636 5639 5642 5646 5647 5646 5642 5642 5644 5646 5643
5545 5546 5548 5550 5552 5555 5559 5562 5562 5564 5566 5567 5564 5570 5577 5578 5581 5583 5582 5583 5595 5603 5619 5634 5638 5629 5626 5627 5628 5630 5625 5627 5627 5626 5634 5637 5640 5638 5636 5637 5638 5643 5644
5528 5530 5531 5531 5532 5535 5539 5542 5544 5547 5551 5559 5562 5569 5573 5574 5578 5580 5581 5583 5585 5591 5608 5622 5624 5618 5617 5616 5618 5619 5616 5617 5621 5624 5623 5633 5636 5633 5630 5628 5625 5629 5628
5510 5512 5514 5515 5515 5517 5518 5523 5527 5529 5536 5541 5548 5553 5558 5563 5571 5581 5583 5584 5580 5583 5596 5605 5610 5610 5609 5612 5606 5607 5610 5612 5616 5614 5613 5627 5632 5626 5619 5620 5619 5621 5619
5498 5500 5500 5499 5499 5503 5505 5509 5511 5515 5517 5526 5533 5536 5539 5550 5557 5553 5568 5583 5583 5578 5584 5591 5594 5597 5597 5599 5602 5602 5601 5601 5606 5608 5603 5616 5627 5618 5614 5613 5616 5617 5614
5489 5489 5489 5488 5488 5491 5495 5499 5498 5497 5498 5502 5506 5511 5522 5527 5528 5535 5547 5550 5560 5562 5572 5584 5587 5590 5590 5594 5596 5597 5597 5599 5604 5604 5599 5612 5621 5613 5613 5611 5613 5614 5611
5486 5487 5483 5480 5479 5479 5484 5490 5495 5499 5497 5497 5497 5498 5501 5510 5514 5522 5528 5531 5542 5554 5571 5576 5582 5584 5585 5588 5591 5594 5597 5602 5601 5610 5602 5611 5612 5611 5609 5610 5612 5611 5607
5489 5488 5484 5483 5480 5479 5485 5491 5495 5497 5499 5501 5497 5498 5501 5504 5509 5515 5519 5522 5531 5548 5571 5572 5576 5578 5581 5583 5587 5590 5594 5596 5599 5604 5602 5606 5608 5607 5606 5610 5611 5609 5607
5489 5492 5494 5494 5491 5491 5494 5497 5498 5500 5501 5502 5503 5505 5508 5512 5517 5521 5520 5530 5539 5549 5570 5572 5573 5575 5578 5579 5583 5588 5590 5589 5597 5598 5598 5604 5604 5605 5604 5609 5609 5604 5601
5491 5494 5494 5498 5503 5504 5504 5504 5507 5509 5511 5515 5519 5525 5531 5523 5528 5534 5533 5540 5550 5556 5565 5571 5570 5570 5574 5576 5579 5585 5590 5584 5584 5587 5597 5601 5602 5601 5605 5608 5605 5603 5601
5499 5504 5504 5505 5508 5511 5514 5516 5518 5520 5523 5526 5533 5540 5531 5538 5544 5547 5547 5549 5556 5558 5563 5567 5567 5567 5569 5575 5578 5580 5584 5584 5587 5586 5595 5599 5597 5600 5604 5604 5601 5599 5600
5510 5515 5519 5518 5519 5522 5523 5524 5529 5532 5533 5539 5540 5535 5530 5540 5548 5548 5550 5556 5561 5564 5565 5570 5568 5569 5573 5579 5583 5583 5585 5585 5590 5591 5593 5594 5596 5600 5601 5599 5597 5597 5595
5516 5523 5527 5531 5532 5531 5532 5535 5540 5542 5548 5543 5543 5541 5539 5546 5548 5550 5553 5558 5562 5565 5568 5568 5567 5568 5571 5578 5583 5588 5590 5592 5596 5596 5594 5593 5597 5599 5598 5594 5594 5593 5590
5528 5536 5542 5543 5544 5545 5543 5549 5555 5550 5549 5547 5546 5545 5547 5548 5550 5552 5554 5555 5557 5560 5562 5564 5567 5573 5574 5577 5580 5582 5586 5593 5597 5594 5594 5593 5596 5591 5593 5591 5589 5588 5585
5537 5549 5555 5555 5556 5550 5550 5553 5552 5550 5549 5548 5546 5547 5546 5547 5549 5546 5545 5550 5554 5558 5562 5566 5569 5571 5574 5577 5580 5583 5588 5591 5594 5593 5591 5590 5591 5588 5587 5586 5584 5582 5577
5532 5539 5543 5548 5550 5547 5547 5549 5548 5546 5546 5546 5549 5547 5548 5544 5544 5545 5548 5550 5554 5558 5560 5564 5567 5571 5575 5575 5577 5581 5583 5586 5587 5586 5585 5586 5583 5583 5583 5582 5579 5574 5568